Location: Rielasingen-Worblingen
(47.7273°N, 8.8603°E)
Time: 23:48:50
(UTC+00:00)

Daily predictions for brighter satellites

Satellite Brightness Start Highest point End
(mag) Time Altitude Azimuth Time Altitude Azimuth Time Altitude Azimuth
MOS 1 Rocket 4.1 16:03:20 10° N 16:08:32 62° WNW 16:13:27 10° SSW
FengYun 1-2 T 4.4 16:03:35 10° SE 16:09:02 54° ENE 16:14:28 10° N
Cosmos 1354 Rocket 4.1 16:07:08 10° NNW 16:12:30 83° ENE 16:17:50 10° SSE
NOAA 6 4.3 16:07:39 10° SE 16:12:33 47° ENE 16:17:28 10° N
Cosmos 2151 3.9 16:08:20 10° NNW 16:12:34 55° W 16:16:44 10° S
CZ-4B R/B 4.2 16:09:24 10° ESE 16:13:40 24° ENE 16:17:52 10° N
CORIOLIS 4.5 16:09:34 10° SE 16:14:39 45° ENE 16:19:47 10° N
CZ-4B R/B 2.9 16:15:02 10° SSE 16:19:17 81° ENE 16:23:22 10° NNW
ADEOS 4.5 16:16:17 10° S 16:21:24 56° W 16:26:33 10° NNW
Meteor 1-27 4.4 16:17:34 10° SSW 16:23:08 76° WNW 16:28:46 10° N
Iridium 2 3.9 16:21:40 10° N 16:25:21 48° E 16:29:00 10° SSE
Cosmos 1869 3.8 16:22:12 10° SSW 16:26:05 61° WNW 16:29:57 10° N
Cosmos 1766 Rocket 3.5 16:22:10 10° N 16:26:29 62° E 16:30:47 10° SSE
USA 305 3.3 16:25:43 10° SW 16:29:49 52° SE 16:33:32 12° ENE
SL-08 R/B 3.6 16:26:25 10° N 16:31:12 70° WNW 16:35:51 10° SSW
Cosmos 1606 3.4 16:27:58 10° SSE 16:31:21 33° E 16:34:46 10° NNE
ARGOS 4.1 16:29:28 10° ESE 16:33:53 26° ENE 16:38:19 10° N
USA 276 2.3 16:32:51 10° W 16:35:56 56° N 16:38:19 16° ENE
Okean O Rocket 2.7 16:33:09 10° ESE 16:36:38 23° ENE 16:40:07 10° NNE
COSMO-SKYMED 1 3.9 16:34:21 10° NE 16:37:32 20° E 16:40:43 10° SE
Cosmos 1464 Rocket 4.2 16:33:45 10° SSE 16:39:55 55° E 16:46:08 10° NNE
Aureole 3 4.2 16:37:39 10° S 16:42:44 70° E 16:49:11 10° NNE
ERBS 3.7 16:43:18 10° S 16:45:51 22° SE 16:47:12 17° E
Meteor 2-19 Rocket 4.5 16:41:37 10° N 16:47:37 59° ENE 16:53:36 10° SSE
Cosmos 2221 2.7 16:45:18 10° SSE 16:49:22 47° E 16:53:30 10° NNE
NOSS 2-1 (E) 2.8 16:46:51 10° SSW 16:50:05 62° SE 16:52:18 19° NE
ISS -3.5 16:49:26 10° W 16:52:48 61° NNW 16:54:50 22° ENE
USA 267 3.7 16:47:44 13° NE 16:53:31 53° NNW 16:59:49 10° W
CZ-2C R/B 3.3 16:48:54 10° NNE 16:53:33 31° E 16:58:06 10° SSE
Cosmos 1340 Rocket 3.4 16:52:09 10° N 16:55:55 35° ENE 16:59:40 10° SE
deb Kosmos-1763 4.4 16:54:20 10° S 16:57:30 37° ESE 16:59:07 23° NE
deb Chang Zheng 4 3.9 16:53:38 10° SE 16:57:40 41° ENE 17:01:44 10° N
YAOGAN 1 4.0 16:58:28 18° NE 16:58:28 18° NE 17:00:49 10° NNE
AQUARIUS 4.2 16:53:55 10° SSE 16:58:24 83° WSW 17:02:55 10° NNW
Nadezhda 4 Rocket 4.0 16:54:05 10° N 17:00:21 65° ENE 17:06:38 10° SSE
Cosmos 1271 Rocket 3.0 16:56:59 10° SSW 17:00:51 69° WNW 17:04:49 10° N
USA 306 2.8 16:57:13 10° SW 17:01:27 81° SSE 17:04:01 23° ENE
USA 229 DEB 4.3 16:54:39 10° NW 17:01:28 43° NE 17:07:26 15° ESE
USA 229 4.3 16:54:44 10° NW 17:01:33 43° NE 17:07:28 15° E
Lacrosse 5 rocket 2.8 16:58:39 10° WNW 17:01:48 24° NNW 17:03:54 16° NNE
SMAP 3.6 17:00:53 10° S 17:05:29 61° WSW 17:10:07 10° NNW
Cosmos 1092 Rocket 4.3 17:01:09 10° N 17:07:14 45° ENE 17:13:17 10° SE
Cosmos 1408 Rocket 3.4 17:03:55 10° N 17:08:16 80° E 17:12:37 10° SSE
CZ-4B DEB 4.4 17:03:12 10° SSE 17:08:44 79° WSW 17:14:17 10° NNW
ATLAS 2AS CENTAUR R/B 4.0 17:01:34 10° W 17:08:48 39° NNW 17:15:29 11° NE
Cosmos 1743 Rocket 3.7 17:06:00 10° N 17:10:12 46° ENE 17:14:21 10° SSE
Meteor 2-2 Rocket 4.4 17:05:04 10° S 17:11:07 88° WNW 17:17:11 10° N
Cosmos 1697 Rocket 3.4 17:06:57 10° NNW 17:11:59 32° NE 17:14:22 23° E
Cosmos 1980 Rocket 3.4 17:07:54 10° N 17:12:09 21° NE 17:12:44 20° NE
H-2A R/B 2.0 17:07:53 10° SSE 17:13:10 79° ENE 17:18:20 10° NNW
PAYLOAD B 4.3 17:10:20 10° SSE 17:15:57 87° WSW 17:21:36 10° NNW
USA 307 2.8 17:12:16 10° WSW 17:16:34 90° NNE 17:18:33 31° ENE
Cosmos 44 3.3 17:13:32 10° NNW 17:18:19 54° NE 17:20:56 24° ESE
SJ-11-01 4.4 17:13:50 10° SSE 17:18:27 54° ENE 17:23:06 10° N
ATLAS CENTAUR R/B 2.0 17:17:01 10° SW 17:21:02 53° NW 17:23:56 20° NNE
Cosmos 2034 Rocket 3.9 17:15:06 10° S 17:21:15 78° E 17:27:26 10° NNE
Lacrosse 5 2.9 17:18:40 10° WNW 17:23:33 46° SW 17:28:23 10° SSE
NOSS 3-1 (A) 4.1 17:17:51 10° NW 17:24:59 57° NE 17:31:39 17° ESE
SKYMED 2 3.6 17:22:52 19° NNE 17:25:54 57° E 17:30:10 10° S
Cosmos 1809 Rocket 4.4 17:22:17 10° N 17:28:18 56° ENE 17:34:15 10° SSE
Cosmos 1898 Rocket 3.8 17:23:43 10° NNW 17:28:48 45° ENE 17:31:16 27° ESE
NOSS 3-1 (C) 4.0 17:22:38 10° NW 17:30:02 82° NE 17:38:45 10° SE
MOS 1-B Rocket 3.8 17:25:09 10° NNE 17:30:49 77° ESE 17:37:00 10° S
NOSS 2-1 (C) 3.8 17:27:55 10° WSW 17:31:02 42° NW 17:32:11 30° N
Cosmos 1656 3.5 17:25:53 10° NNW 17:31:25 75° ENE 17:36:59 10° SSE
Cosmos 2084 4.2 17:30:07 10° NNW 17:33:54 34° NE 17:33:54 34° NE
GEOS 3 Rocket 3.8 17:29:05 10° SE 17:34:20 75° SW 17:39:34 10° NW
CZ-2D R/B 4.2 17:30:48 10° S 17:34:33 50° W 17:38:19 10° NNW
Meteor 1-20 Rocket 4.2 17:30:13 10° N 17:36:01 77° ENE 17:41:52 10° SSE
Cosmos 1461 4.3 17:33:47 10° WSW 17:37:36 32° NW 17:39:49 19° N
USA 308 3.0 17:34:26 10° WSW 17:38:40 70° NNW 17:39:46 47° NE
SL-08 RB Rocket 3.7 17:34:52 10° SSE 17:39:26 59° ENE 17:44:01 10° N
NOSS 2-1 (D) 4.1 17:37:19 10° WSW 17:40:20 35° NW 17:41:11 30° N
Cosmos 1500 Rocket 3.6 17:37:19 10° NNW 17:41:49 80° W 17:46:14 10° S
Cosmos 468 Rocket 4.1 17:37:01 10° S 17:41:55 48° ESE 17:42:42 44° ENE
Cosmos 2279 Rocket 4.4 17:38:09 10° SSE 17:43:30 36° E 17:43:30 36° E
SJ 16-02 3.1 17:40:23 10° NW 17:44:18 33° WSW 17:48:13 10° SSW
Cosmos 2360 4.3 17:41:38 10° NNW 17:47:14 51° NE 17:48:27 43° E
Cosmos 1634 Rocket 3.9 17:43:29 10° S 17:49:41 63° E 17:55:56 10° NNE
Cosmos 1805 Rocket 3.3 17:47:47 10° N 17:52:09 79° E 17:56:29 10° SSE
CZ-4B R/B 3.7 17:48:23 10° S 17:53:49 61° WSW 17:59:11 10° NNW
CZ-4C R/B 3.5 17:48:44 10° NW 17:54:57 36° NNE 17:56:09 34° NE
CZ-4 R/B 3.3 18:00:42 19° N 18:00:42 19° N 18:01:59 10° N
Cosmos 1833 Rocket 2.8 17:53:25 10° S 17:58:46 51° ESE 17:58:46 51° ESE
ATLAS 5 CENTAUR R/B 3.1 17:51:22 10° NW 17:58:53 37° NNE 17:58:53 37° NNE
Cosmos 2026 Rocket 4.0 18:02:22 10° N 18:08:36 82° W 18:14:42 10° S
USA 305 3.5 18:05:39 10° W 18:09:32 47° NNW 18:09:32 47° NNW
Sich 1 4.2 18:06:54 10° N 18:09:17 33° NNW 18:09:17 33° NNW
USA 276 4.4 18:09:03 10° WNW 18:10:26 23° WNW 18:10:26 23° WNW
Okean O Rocket 2.7 18:08:28 10° S 18:12:43 44° W 18:17:01 10° NNW
ARGOS 3.9 18:08:32 10° S 18:13:50 54° W 18:19:10 10° NNW
COSMO-SKYMED 1 3.5 18:11:30 22° N 18:13:57 47° WNW 18:18:06 10° SW
Spot 2 4.5 18:11:27 13° SSE 18:15:59 82° WSW 18:21:11 10° NNW
ATLAS CENTAUR R/B 2.5 18:10:28 10° SW 18:19:16 78° SE 18:19:16 78° SE
Cosmos 1937 Rocket 3.5 18:16:08 10° NNW 18:21:06 77° N 18:21:06 77° N
Meteor 2-16 Rocket 4.2 18:18:31 10° N 18:24:38 78° E 18:25:15 71° SE
Cosmos 1763 Rocket 3.6 18:23:37 10° SSW 18:28:39 68° WNW 18:28:45 68° WNW
ISS -1.0 18:26:44 10° WNW 18:27:49 18° WNW 18:27:49 18° WNW
YAOGAN 1 4.2 18:35:36 28° NW 18:35:36 28° NW 18:37:47 10° NNW
CZ-2C R/B 3.8 18:29:03 10° N 18:33:56 40° WNW 18:38:44 10° SW
USA 267 3.9 18:35:05 38° NNE 18:35:50 39° N 18:41:48 10° WNW
Cosmos 2369 4.1 18:33:37 10° NNW 18:38:07 56° NNW 18:38:07 56° NNW
Lacrosse 5 rocket 3.9 18:38:43 10° NW 18:39:29 14° NW 18:39:29 14° NW
Cosmos 2322 Rocket 4.4 18:40:28 10° N 18:41:20 13° N 18:41:20 13° N
USA 229 DEB 4.2 18:45:36 10° NW 18:52:51 65° WSW 18:54:57 48° S
USA 229 4.2 18:45:41 10° NW 18:52:57 65° SW 18:54:59 49° S
Cosmos 1697 Rocket 3.4 18:50:46 10° NW 18:56:10 50° WSW 18:56:10 50° WSW
Cosmos 1980 Rocket 3.3 18:51:14 10° NNW 18:54:31 36° NNW 18:54:31 36° NNW
SL-16 R/B 4.4 18:52:03 10° NNW 18:53:08 15° N 18:53:08 15° N
COSMOS 2455 4.5 18:52:32 10° SSW 18:54:37 23° SSW 18:54:37 23° SSW
COSMOS 2406 4.2 18:53:38 10° SSW 18:57:17 41° SW 18:57:17 41° SW
ATLAS CENTAUR R/B 4.2 18:58:26 10° WNW 19:00:03 14° NW 19:00:03 14° NW
ATLAS 2AS CENTAUR R/B 4.4 18:55:59 10° WNW 19:01:57 24° N 19:02:55 23° N
Cosmos 2082 Rocket 4.4 18:57:18 10° SSW 18:58:12 15° SSW 18:58:12 15° SSW
CZ-4C R/B 3.8 19:37:03 10° NW 19:41:21 42° NW 19:41:21 42° NW
